KI5FU Weather Reports


Display with metric or nautical units.
time (UTC)temp
F
wind
direction
speed
MPH
gust
MPH
rain 1hr
in
rain 24hr
in
rain mn
in
humidity
%
barometer
mb
20210925064510 64 136 0.0 0.0 0.00 0.00 0.00 72 1018.5
20210925063019 65 136 0.0 0.0 0.00 0.00 0.00 71 1018.4
20210925061514 65 136 0.0 2.0 0.00 0.00 0.00 72 1018.3
20210925060002 65 136 1.0 3.0 0.00 0.00 0.00 71 1018.3
20210925054611 66 136 1.0 3.0 0.00 0.00 0.00 70 1018.3
20210925053110 66 137 1.0 3.0 0.00 0.00 0.00 70 1018.2
20210925051558 66 137 2.0 4.0 0.00 0.00 0.00 70 1018.1
20210925050127 66 134 1.0 3.0 0.00 0.00 0.00 69 1018.2
20210925044611 67 134 1.0 4.0 0.00 0.00 0.00 69 1018.0
20210925043103 67 156 2.0 6.0 0.00 0.00 0.00 68 1018.1
20210925041631 67 156 1.0 5.0 0.00 0.00 0.00 67 1017.9
20210925040209 68 157 3.0 6.0 0.00 0.00 0.00 67 1017.8
20210925034648 68 139 2.0 4.0 0.00 0.00 0.00 66 1017.8
20210925033112 69 138 2.0 4.0 0.00 0.00 0.00 65 1017.6
20210925031602 70 140 2.0 7.0 0.00 0.00 0.00 64 1017.6
20210925030129 71 149 4.0 9.0 0.00 0.00 0.00 63 1017.5
20210925024655 71 169 4.0 7.0 0.00 0.00 0.00 62 1017.5
20210925023124 71 153 4.0 7.0 0.00 0.00 0.00 61 1017.5
20210925021558 72 164 5.0 9.0 0.00 0.00 0.00 59 1017.3
20210925020056 73 172 4.0 7.0 0.00 0.00 0.00 58 1017.1
20210925014604 73 163 5.0 7.0 0.00 0.00 0.00 56 1016.8
20210925013056 74 165 4.0 6.0 0.00 0.00 0.00 54 1016.6
20210925011640 75 180 4.0 7.0 0.00 0.00 0.00 52 1016.6
20210925010103 75 163 5.0 8.0 0.00 0.00 0.00 49 1016.5
20210925004617 77 171 5.0 8.0 0.00 0.00 0.00 46 1016.3
20210925003134 78 163 3.0 6.0 0.00 0.00 0.00 42 1016.2
20210925001627 80 157 2.0 5.0 0.00 0.00 0.00 40 1016.3
20210925000107 81 157 2.0 6.0 0.00 0.00 0.00 39 1016.2
20210924234546 82 182 4.0 8.0 0.00 0.00 0.00 38 1016.3
20210924233111 83 159 5.0 8.0 0.00 0.00 0.00 38 1016.3
20210924231612 84 150 5.0 8.0 0.00 0.00 0.00 37 1016.3
20210924230134 84 175 5.0 11.0 0.00 0.00 0.00 37 1016.3
20210924224544 85 130 5.0 10.0 0.00 0.00 0.00 37 1016.1
20210924223102 85 194 5.0 13.0 0.00 0.00 0.00 37 1016.2
20210924221639 85 179 5.0 10.0 0.00 0.00 0.00 36 1016.2
20210924220112 85 163 6.0 12.0 0.00 0.00 0.00 36 1016.2
20210924214603 85 186 5.0 12.0 0.00 0.00 0.00 36 1016.4
20210924213110 85 128 2.0 7.0 0.00 0.00 0.00 36 1016.5
20210924211536 86 148 7.0 14.0 0.00 0.00 0.00 36 1016.5
20210924210106 85 110 2.0 10.0 0.00 0.00 0.00 36 1016.5
20210924204546 85 172 2.0 6.0 0.00 0.00 0.00 36 1016.5
20210924203040 85 119 7.0 12.0 0.00 0.00 0.00 36 1016.7
20210924201524 86 104 6.0 10.0 0.00 0.00 0.00 35 1016.8
20210924200050 85 105 1.0 14.0 0.00 0.00 0.00 35 1017.0
20210924194553 85 115 4.0 13.0 0.00 0.00 0.00 35 1017.3
20210924193042 84 139 1.0 8.0 0.00 0.00 0.00 36 1017.4
20210924191534 84 82 7.0 15.0 0.00 0.00 0.00 37 1017.8
20210924190018 84 57 2.0 14.0 0.00 0.00 0.00 38 1017.9
20210924184523 84 74 6.0 11.0 0.00 0.00 0.00 39 1018.1
20210924183012 84 148 6.0 10.0 0.00 0.00 0.00 39 1018.4
20210924181509 82 153 5.0 11.0 0.00 0.00 0.00 40 1018.6
20210924180015 82 177 7.0 10.0 0.00 0.00 0.00 41 1018.7
20210924174506 82 206 5.0 10.0 0.00 0.00 0.00 41 1019.1
20210924173008 81 123 7.0 10.0 0.00 0.00 0.00 42 1019.3
20210924171501 81 115 7.0 12.0 0.00 0.00 0.00 43 1019.3
20210924170110 81 117 6.0 10.0 0.00 0.00 0.00 45 1019.4
20210924164625 79 119 1.0 10.0 0.00 0.00 0.00 45 1019.5
20210924163108 79 163 4.0 9.0 0.00 0.00 0.00 47 1019.7
20210924161632 79 195 7.0 11.0 0.00 0.00 0.00 49 1019.8
20210924160151 77 212 1.0 10.0 0.00 0.00 0.00 51 1019.8
20210924154556 76 121 2.0 10.0 0.00 0.00 0.00 53 1019.9
20210924153116 76 122 3.0 8.0 0.00 0.00 0.00 56 1020.0
20210924151640 75 117 4.0 7.0 0.00 0.00 0.00 58 1019.9
20210924150129 73 108 3.0 7.0 0.00 0.00 0.00 60 1019.8
20210924144610 71 102 3.0 7.0 0.00 0.00 0.00 62 1019.7
20210924143100 69 80 1.0 3.0 0.00 0.00 0.00 66 1019.6
20210924141537 66 79 0.0 2.0 0.00 0.00 0.00 71 1019.7
20210924140031 63 79 1.0 4.0 0.00 0.00 0.00 76 1019.5
20210924134637 61 80 2.0 3.0 0.00 0.00 0.00 80 1019.4
20210924133046 59 80 2.0 4.0 0.00 0.00 0.00 81 1019.4
20210924131525 56 85 2.0 4.0 0.00 0.00 0.00 81 1019.3
20210924130020 55 158 2.0 3.0 0.00 0.00 0.00 81 1019.2
20210924124604 54 158 1.0 3.0 0.00 0.00 0.00 81 1019.2
20210924123048 54 158 1.0 3.0 0.00 0.00 0.00 80 1019.2
20210924121528 54 159 0.0 0.0 0.00 0.00 0.00 80 1019.1
20210924120038 54 159 0.0 2.0 0.00 0.00 0.00 80 1018.9
20210924114538 55 159 1.0 2.0 0.00 0.00 0.00 79 1018.9
20210924113014 55 159 0.0 0.0 0.00 0.00 0.00 79 1018.7
20210924111521 55 159 0.0 0.0 0.00 0.00 0.00 79 1018.6
20210924110035 55 159 0.0 0.0 0.00 0.00 0.00 79 1018.5
20210924104507 55 159 0.0 0.0 0.00 0.00 0.00 79 1018.4
20210924103025 56 159 0.0 0.0 0.00 0.00 0.00 79 1018.3
20210924101521 55 159 1.0 2.0 0.00 0.00 0.00 79 1018.1
20210924100006 55 159 0.0 0.0 0.00 0.00 0.00 78 1018.0
20210924094505 55 159 0.0 0.0 0.00 0.00 0.00 78 1017.9
20210924093002 55 159 0.0 0.0 0.00 0.00 0.00 78 1017.9
20210924083148 56 159 0.0 0.0 0.00 0.00 0.00 76 1017.8
20210924081557 57 159 0.0 0.0 0.00 0.00 0.00 75 1017.8
20210924080120 57 159 0.0 0.0 0.00 0.00 0.00 74 1018.0
20210924074641 58 159 0.0 0.0 0.00 0.00 0.00 73 1018.0
20210924073059 59 159 0.0 0.0 0.00 0.00 0.00 72 1017.9
20210924071550 60 159 0.0 0.0 0.00 0.00 0.00 71 1018.2
20210924070101 60 159 0.0 1.0 0.00 0.00 0.00 70 1018.1